カタログに戻る

CHINASAT 22A

運用中通信GEO
NORAD 29398·PAYLOAD·🇨🇳 China

打ち上げ Sep 12, 2006 から Xichang Satellite Launch Center

Loading…

TLE

最新Source: Space-Track

元期: Sep 14, 2026, 19:29 UTC

1 29398U 06038A   26257.81236777 -.00000369  00000-0  00000-0 0  9990
2 29398  11.6518  36.5760 0003945 153.8752 214.1015  1.00085451 73282

AllMySatでCHINASAT 22Aをリアルタイム追跡

Download on the App Store